Regional Weather Roundup
Issued by NWS Sterling, VA

Home | Current Version | Previous Version | Text Only | Print | Product List | Glossary Off
Versions: 1 2 3 4 5 6 7 8 9 10 11 12 13 14 15 16 17 18 19 20 21 22 23 24 25 26 27 28 29 30 31 32 33 34 35 36 37 38 39 40 41 42 43 44 45 46 47 48 49 50

311
ASUS41 KLWX 240610
RWRLWX

REGIONAL WEATHER ROUNDUP
NATIONAL WEATHER SERVICE BALTIMORE MD/WASHINGTON DC
100 AM EST TUE JAN 24 2017

Note: "FAIR" indicates few or no clouds below 12,000 feet
with no significant weather and/or obstructions to visibility.
 TC=TEMPERATURE CELSIUS

 * =Non NWS site. Station does not report precipitation (e.g. rain,
    snow, etc.), thunder, or fog.

DCZ001-MDZ009-015-VAZ040>042-051-053>054-240700-
WASHINGTON METRO

CITY           SKY/WX    TMP DP  RH WIND       PRES   REMARKS
WASHINGTON NAT LGT RAIN  39  37  92 N15       29.47F
DULLES         LGT RAIN  36  34  92 N13       29.49F FOG     WCI  27
ANDREWS AFB    CLOUDY    37  36  94 N13       29.44S
FT BELVOIR     LGT RAIN  39  36  87 NW9       29.47F
QUANTICO       LGT RAIN  39  38  96 N14G25    29.48F
COLLEGE PARK*  CLOUDY    37  34  87 NW10      29.46F
LEESBURG*      LGT RAIN  37  37 100 NW10      29.52S
GAITHERSBURG*  CLOUDY    36  32  87 N3        29.51F

$$

MDZ006>007-011-014-240700-
BALTIMORE METRO

CITY           SKY/WX    TMP DP  RH WIND       PRES   REMARKS
BWI AIRPORT    DRIZZLE   38  36  92 N9        29.45S
MD SCIENCE CTR   N/A     40  33  76 MISG      29.46F
ANNAPOLIS      CLOUDY    41  36  82 N16       29.42F
FORT MEADE*    CLOUDY    37  34  87 N6        29.48S

$$

MDZ012-015-019>023-240700-
MARYLAND EASTERN SHORE

CITY           SKY/WX    TMP DP  RH WIND       PRES   REMARKS
OCEAN CITY     CLOUDY    43  41  93 N20G35    29.28F
SALISBURY      CLOUDY    42  40  92 N15G23    29.31F
BAY BRIDGE AP* CLOUDY    39  36  87 N13G25    29.43S FOG
CAMBRIDGE*     CLOUDY    37  36  93 NW13      29.37S
EASTON*        CLOUDY    40  37  86 N17       29.42F

$$

MDZ017>025-240700-
SOUTHERN MARYLAND

CITY           SKY/WX    TMP DP  RH WIND       PRES   REMARKS
PATUXENT RIVER LGT RAIN  39  38  96 N21       29.39F FOG     WCI  29
ST INIGOES     LGT RAIN  40  40 100 NW8       29.39F FOG
LEONARDTOWN*   CLOUDY    37  36  93 NW9G17    29.42F

$$

MDZ003>005-240700-
NORTH CENTRAL MARYLAND

CITY           SKY/WX    TMP DP  RH WIND       PRES   REMARKS
FREDERICK*     CLOUDY    36  36 100 N10       29.53F WCI  28
HAGERSTOWN APT MIX PCPN  35  33  92 N9        29.52F FOG     WCI  28
WESTMINSTER*     N/A     34  34 100 N9G17     29.46F FOG     WCI  26

$$

MDZ501>502-240700-
WESTERN MARYLAND

CITY           SKY/WX    TMP DP  RH WIND       PRES   REMARKS
OAKLAND*         N/A     28  28 100 CALM      29.50F FOG
CUMBERLAND*    CLOUDY    34  34 100 CALM      29.61F

$$

VAZ025>031-240700-
SHENANDOAH VALLEY

CITY           SKY/WX    TMP DP  RH WIND       PRES   REMARKS
WINCHESTER*    LGT SNOW  32  32 100 NW8       29.54S WCI  25
FRONT ROYAL*   CLOUDY    34  32  93 NW3       29.53F
LURAY*         DRIZZLE   34  34 100 CALM      29.53F
NEW MARKET*    CLOUDY    33  32  96 CALM      29.53F
STAUNTON*      CLOUDY    34  32  93 N8        29.53F WCI  27
WAYNESBORO*    CLOUDY    33  32  96 N3        29.51F

$$

WVZ021-048>050-054>055-240700-
EASTERN WEST VIRGINIA PANHANDLE

CITY           SKY/WX    TMP DP  RH WIND       PRES   REMARKS
MARTINSBURG    CLOUDY    35  33  92 NW9       29.54S FOG     WCI  28
PETERSBURG*    CLOUDY    36  34  94 CALM      29.58F

$$

VAZ036>039-050-240700-
CENTRAL FOOTHILLS

CITY           SKY/WX    TMP DP  RH WIND       PRES   REMARKS
CHARLOTTESVILL CLOUDY    39  35  86 NW5       29.48F
CULPEPER*      DRIZZLE   38  36  94 N12G18    29.51S
ORANGE*        DRIZZLE   37  36  93 NW8       29.50F
GORDONSVILLE*  CLOUDY    38  35  89 N7        29.48F
WARRENTON*     DRIZZLE   38  34  87 NW10      29.49S

$$

VAZ055>057-240700-
NORTH AND CENTRAL PIEDMONT

CITY           SKY/WX    TMP DP  RH WIND       PRES   REMARKS
FREDERICKSBRG* DRIZZLE   38  38 100 N15       29.47S
STAFFORD*      RAIN      36  36 100 NW13      29.51F WCI  28

$$

NCZ024-NYZ072-PAZ021-071-VAZ022-071-240700-
OTHER REGIONAL OBSERVATIONS

CITY           SKY/WX    TMP DP  RH WIND       PRES   REMARKS
NEW YORK CITY  RAIN      37  35  92 NE17G31   29.43F FOG     WCI  27
PHILADELPHIA   CLOUDY    39  35  86 N18G31    29.39F
PITTSBURGH     DRIZZLE   36  36 100 NE7       29.61S
ROANOKE        CLOUDY    39  35  86 N7        29.54S
RICHMOND       LGT RAIN  39  38  96 N17       29.42F
RALEIGH        LGT RAIN  43  36  76 NW9       29.49S

$$

ANZ530>537-240700-
MARINE OBSERVATIONS

STATION/POSITION TIME  TEMP    WIND        PRES
                       AIR SEA DIR/SP/G
                 (UTC) (F)     (DEG/KT/KT) (MB)
THOMAS PT LIGHT  0600   39 40  360/ 20/ 23   N/A
BALT KEY BRIDGE  0548   39     360/ 14/ 16  997.2F
COVE POINT       0548   38     360/ 24/ 31  995.9F
LEWISETTA        0548   40 45  350/ 16/ 21  995.2F
SOLOMONS ISLAND  0542   39 42  350/ 15/ 21   N/A
PINEY POINT      0542          350/ 18/ 20   N/A

$$





USA.gov is the U.S. government's official web portal to all federal, state and local government web resources and services.